This is the latest recevied weather packets stored in our database for station/object HB9TJM-8. If no packets are shown the sender has not sent any weather packets the latest 10 day(s).
| Time | Temp. | Humidity | Pressure | Rain* | Wind** | Luminosity | Snow |
|---|---|---|---|---|---|---|---|
| 1777053304 | 13.89° C | 28% | 1019.2 hPa | 0 mm | - | 23 W/m² | - |
| 1777052997 | 13.89° C | 29% | 1019.2 hPa | 0 mm | - | 25 W/m² | - |
| 1777052689 | 13.89° C | 28% | 1019.2 hPa | 0 mm | - | 27 W/m² | - |
| 1777052382 | 13.89° C | 28% | 1019 hPa | 0 mm | - | 29 W/m² | - |
| 1777052075 | 13.89° C | 28% | 1019 hPa | 0 mm | - | 30 W/m² | - |
| 1777051767 | 14.44° C | 28% | 1019.3 hPa | 0 mm | - | 32 W/m² | - |
| 1777051461 | 14.44° C | 28% | 1019.2 hPa | 0 mm | - | 33 W/m² | - |
| 1777051153 | 14.44° C | 26% | 1019.1 hPa | 0 mm | - | 35 W/m² | - |
| 1777050845 | 15° C | 26% | 1019.2 hPa | 0 mm | - | 36 W/m² | - |
| 1777050538 | 15° C | 26% | 1019.5 hPa | 0 mm | - | 38 W/m² | - |
| 1777050230 | 15° C | 26% | 1019.1 hPa | 0 mm | - | 39 W/m² | - |
| 1777049923 | 15.56° C | 26% | 1019.3 hPa | 0 mm | - | 41 W/m² | - |
| 1777049615 | 15.56° C | 27% | 1019.4 hPa | 0 mm | - | 40 W/m² | - |
| 1777049308 | 15.56° C | 25% | 1019.1 hPa | 0 mm | - | 41 W/m² | - |
| 1777049001 | 15.56° C | 23% | 1019.3 hPa | 0 mm | - | 42 W/m² | - |
| 1777048692 | 16.11° C | 21% | 1019 hPa | 0 mm | - | 43 W/m² | - |
| 1777048385 | 16.11° C | 24% | 1018.9 hPa | 0 mm | - | 44 W/m² | - |
| 1777048078 | 16.11° C | 22% | 1019.4 hPa | 0 mm | - | 45 W/m² | - |
| 1777047770 | 16.67° C | 24% | 1019.6 hPa | 0 mm | - | 90 W/m² | - |
| 1777047462 | 16.67° C | 19% | 1019.1 hPa | 0 mm | - | 95 W/m² | - |
| 1777047155 | 16.67° C | 18% | 1019.2 hPa | 0 mm | - | 99 W/m² | - |
| 1777046848 | 16.67° C | 21% | 1019.3 hPa | 0 mm | - | 212 W/m² | - |
| 1777046540 | 16.67° C | 19% | 1019.4 hPa | 0 mm | - | 151 W/m² | - |
| 1777046233 | 16.67° C | 18% | 1019.3 hPa | 0 mm | - | 94 W/m² | - |
| 1777045926 | 17.22° C | 17% | 1019.5 hPa | 0 mm | - | 136 W/m² | - |
* Rain latest hour (hover to see other rain measurements)
** Current wind speed in m/s (hover to see current wind gust speed)